• en Belgique
  • Liste des pays
  • À 7 jours
  • Température de l'eau
  • Carte satellitaire
  • Carte météo
  • Widgets météo
  • user-avatar
    Se connecter

    Météo par heure à Pelageinskoe

    Ce jour, 25 Septembre, Mardi

    Heure Température Précipitation Vent Pression Humidité
    00:00 +8°C° 1.7 mm 6 m/s 736 mmHg 91%
    01:00 +8°C° 0.6 mm 5 m/s 735 mmHg 91%
    02:00 +8°C° 0.6 mm 5 m/s 734 mmHg 91%
    03:00 +10°C° 0 mm 3 m/s 734 mmHg 92%
    04:00 +9°C° 0.4 mm 3 m/s 734 mmHg 92%
    05:00 +9°C° 0.4 mm 3 m/s 734 mmHg 92%
    06:00 +8°C° 0.4 mm 3 m/s 734 mmHg 91%
    07:00 +7°C° 0.3 mm 4 m/s 734 mmHg 91%
    08:00 +7°C° 0.3 mm 4 m/s 735 mmHg 91%
    09:00 +7°C° 0 mm 5 m/s 735 mmHg 90%
    10:00 +7°C° 0.4 mm 5 m/s 736 mmHg 89%
    11:00 +7°C° 0.4 mm 6 m/s 737 mmHg 89%
    12:00 +7°C° 0.4 mm 6 m/s 738 mmHg 88%
    13:00 +7°C° 0.6 mm 6 m/s 739 mmHg 87%
    14:00 +6°C° 0.6 mm 7 m/s 740 mmHg 87%
    15:00 +7°C° 0 mm 6 m/s 741 mmHg 86%
    16:00 +7°C° 0.4 mm 6 m/s 742 mmHg 85%
    17:00 +7°C° 0.4 mm 6 m/s 743 mmHg 83%
    18:00 +7°C° 0.4 mm 6 m/s 744 mmHg 82%
    19:00 +6°C° 0 mm 5 m/s 745 mmHg 82%
    20:00 +6°C° 0 mm 5 m/s 745 mmHg 82%
    21:00 +5°C° 0 mm 5 m/s 746 mmHg 83%
    22:00 +5°C° 0 mm 4 m/s 747 mmHg 84%
    23:00 +4°C° 0 mm 4 m/s 748 mmHg 84%

    Demain, 26 Septembre, Mercredi

    Heure Température Précipitation Vent Pression Humidité
    00:00 +4°C° 0 mm 4 m/s 749 mmHg 85%
    01:00 +3°C° 0 mm 4 m/s 750 mmHg 86%
    02:00 +3°C° 0 mm 4 m/s 750 mmHg 86%
    03:00 +3°C° 0 mm 4 m/s 751 mmHg 86%
    04:00 +1°C° 0 mm 4 m/s 752 mmHg 86%
    05:00 +1°C° 0 mm 4 m/s 752 mmHg 87%
    06:00 +1°C° 0 mm 4 m/s 753 mmHg 87%
    07:00 +1°C° 0 mm 4 m/s 753 mmHg 83%
    08:00 +3°C° 0 mm 4 m/s 753 mmHg 79%
    09:00 +4°C° 0 mm 4 m/s 754 mmHg 76%
    10:00 +5°C° 0 mm 4 m/s 754 mmHg 71%
    11:00 +7°C° 0 mm 4 m/s 754 mmHg 66%
    12:00 +8°C° 0 mm 4 m/s 754 mmHg 62%
    13:00 +9°C° 0 mm 5 m/s 754 mmHg 62%
    14:00 +9°C° 0 mm 5 m/s 753 mmHg 62%
    15:00 +10°C° 0 mm 5 m/s 753 mmHg 62%
    16:00 +9°C° 0 mm 5 m/s 752 mmHg 64%
    17:00 +8°C° 0 mm 4 m/s 752 mmHg 67%
    18:00 +8°C° 0 mm 4 m/s 751 mmHg 69%
    19:00 +8°C° 0 mm 5 m/s 750 mmHg 68%
    20:00 +7°C° 0 mm 6 m/s 749 mmHg 67%
    21:00 +7°C° 0 mm 6 m/s 748 mmHg 65%
    22:00 +6°C° 0.6 mm 7 m/s 747 mmHg 70%
    23:00 +6°C° 0.6 mm 7 m/s 746 mmHg 75%

    Après-demain, 27 Septembre, Jeudi

    Heure Température Précipitation Vent Pression Humidité
    00:00 +5°C° 0.6 mm 8 m/s 745 mmHg 80%
    01:00 +5°C° 1.8 mm 8 m/s 743 mmHg 82%
    02:00 +5°C° 1.8 mm 8 m/s 742 mmHg 84%
    03:00 +4°C° 1.8 mm 8 m/s 740 mmHg 86%
    04:00 +5°C° 1.4 mm 8 m/s 740 mmHg 87%
    05:00 +5°C° 1.4 mm 7 m/s 739 mmHg 88%
    06:00 +6°C° 1.4 mm 7 m/s 738 mmHg 89%
    07:00 +6°C° 0.7 mm 7 m/s 738 mmHg 87%
    08:00 +7°C° 0.7 mm 6 m/s 738 mmHg 84%
    09:00 +8°C° 0.7 mm 6 m/s 738 mmHg 82%
    10:00 +8°C° 0.2 mm 6 m/s 738 mmHg 77%
    11:00 +9°C° 0.2 mm 7 m/s 738 mmHg 71%
    12:00 +9°C° 0.2 mm 7 m/s 739 mmHg 66%
    13:00 +9°C° 0.3 mm 8 m/s 739 mmHg 66%
    14:00 +9°C° 0.3 mm 8 m/s 739 mmHg 66%
    15:00 +9°C° 0.3 mm 8 m/s 740 mmHg 66%
    16:00 +8°C° 0.1 mm 7 m/s 740 mmHg 68%
    17:00 +7°C° 0.1 mm 6 m/s 741 mmHg 71%
    18:00 +7°C° 0.1 mm 5 m/s 741 mmHg 73%
    19:00 +6°C° 0 mm 5 m/s 741 mmHg 74%
    20:00 +6°C° 0 mm 5 m/s 742 mmHg 75%
    21:00 +5°C° 0 mm 4 m/s 742 mmHg 77%
    22:00 +5°C° 0 mm 4 m/s 742 mmHg 76%
    23:00 +5°C° 0 mm 5 m/s 743 mmHg 76%

    28 Septembre, Vendredi

    Heure Température Précipitation Vent Pression Humidité
    00:00 +5°C° 0 mm 5 m/s 743 mmHg 76%
    01:00 +5°C° 0 mm 4 m/s 743 mmHg 76%
    02:00 +5°C° 0 mm 4 m/s 743 mmHg 76%
    03:00 +5°C° 0 mm 4 m/s 742 mmHg 76%
    04:00 +5°C° 0.6 mm 4 m/s 742 mmHg 81%
    05:00 +5°C° 0.6 mm 3 m/s 741 mmHg 85%
    06:00 +5°C° 0.6 mm 3 m/s 740 mmHg 89%
    07:00 +5°C° 2.5 mm 3 m/s 739 mmHg 91%
    08:00 +6°C° 2.5 mm 4 m/s 737 mmHg 92%
    09:00 +6°C° 2.5 mm 4 m/s 736 mmHg 94%
    10:00 +7°C° 1.6 mm 4 m/s 736 mmHg 92%
    11:00 +8°C° 1.6 mm 5 m/s 736 mmHg 91%
    12:00 +9°C° 1.6 mm 5 m/s 736 mmHg 89%
    13:00 +8°C° 0.2 mm 5 m/s 737 mmHg 87%
    14:00 +8°C° 0.2 mm 5 m/s 738 mmHg 84%
    15:00 +7°C° 0.2 mm 6 m/s 739 mmHg 82%
    16:00 +6°C° 0 mm 5 m/s 740 mmHg 82%
    17:00 +6°C° 0 mm 4 m/s 741 mmHg 82%
    18:00 +5°C° 0 mm 4 m/s 743 mmHg 82%
    19:00 +4°C° 0 mm 4 m/s 743 mmHg 82%
    20:00 +4°C° 0 mm 3 m/s 744 mmHg 82%
    21:00 +3°C° 0 mm 3 m/s 745 mmHg 82%
    22:00 +3°C° 0 mm 3 m/s 746 mmHg 83%
    23:00 +2°C° 0 mm 3 m/s 746 mmHg 85%

    29 Septembre, Samedi

    Heure Température Précipitation Vent Pression Humidité
    00:00 +2°C° 0 mm 3 m/s 747 mmHg 86%
    01:00 +2°C° 0 mm 3 m/s 747 mmHg 87%
    02:00 +2°C° 0 mm 3 m/s 748 mmHg 89%
    03:00 +1°C° 0 mm 3 m/s 748 mmHg 90%
    04:00 +1°C° 0 mm 3 m/s 749 mmHg 90%
    05:00 +1°C° 0 mm 3 m/s 749 mmHg 89%
    06:00 0°C° 0 mm 3 m/s 750 mmHg 89%
    07:00 +1°C° 0 mm 3 m/s 751 mmHg 83%
    08:00 +1°C° 0 mm 4 m/s 751 mmHg 76%
    09:00 +3°C° 0 mm 4 m/s 752 mmHg 70%
    10:00 +4°C° 0 mm 4 m/s 752 mmHg 64%
    11:00 +5°C° 0 mm 4 m/s 753 mmHg 58%
    12:00 +6°C° 0 mm 5 m/s 754 mmHg 52%
    13:00 +6°C° 0 mm 5 m/s 754 mmHg 51%
    14:00 +6°C° 0 mm 5 m/s 754 mmHg 50%
    15:00 +6°C° 0 mm 5 m/s 755 mmHg 49%
    16:00 +5°C° 0 mm 4 m/s 755 mmHg 54%
    17:00 +4°C° 0 mm 3 m/s 755 mmHg 60%
    18:00 +4°C° 0 mm 2 m/s 755 mmHg 65%
    19:00 +3°C° 0 mm 2 m/s 756 mmHg 68%
    20:00 +2°C° 0 mm 2 m/s 757 mmHg 70%
    21:00 +2°C° 0 mm 2 m/s 757 mmHg 73%
    22:00 +1°C° 0 mm 2 m/s 757 mmHg 74%
    23:00 +1°C° 0 mm 2 m/s 758 mmHg 76%

    30 Septembre, Dimanche

    Heure Température Précipitation Vent Pression Humidité
    00:00 -1°C° 0 mm 2 m/s 758 mmHg 77%
    01:00 -1°C° 0 mm 2 m/s 758 mmHg 78%
    02:00 -1°C° 0 mm 2 m/s 758 mmHg 78%
    03:00 -1°C° 0 mm 2 m/s 758 mmHg 79%
    04:00 -1°C° 0 mm 2 m/s 758 mmHg 79%
    05:00 -1°C° 0 mm 3 m/s 758 mmHg 78%
    06:00 -1°C° 0 mm 3 m/s 758 mmHg 78%
    07:00 +1°C° 0 mm 3 m/s 758 mmHg 73%
    08:00 +1°C° 0 mm 4 m/s 758 mmHg 69%
    09:00 +3°C° 0 mm 4 m/s 758 mmHg 64%
    10:00 +5°C° 0 mm 5 m/s 758 mmHg 61%
    11:00 +6°C° 0 mm 5 m/s 758 mmHg 57%
    12:00 +8°C° 0 mm 6 m/s 758 mmHg 53%
    13:00 +8°C° 0 mm 6 m/s 757 mmHg 52%
    14:00 +8°C° 0 mm 6 m/s 757 mmHg 51%
    15:00 +9°C° 0 mm 6 m/s 757 mmHg 50%
    16:00 +8°C° 0 mm 5 m/s 756 mmHg 54%
    17:00 +7°C° 0 mm 4 m/s 756 mmHg 58%
    18:00 +6°C° 0 mm 4 m/s 756 mmHg 62%
    19:00 +5°C° 0 mm 4 m/s 756 mmHg 62%
    20:00 +5°C° 0 mm 4 m/s 756 mmHg 63%
    21:00 +5°C° 0 mm 4 m/s 756 mmHg 64%
    22:00 +4°C° 0 mm 4 m/s 755 mmHg 65%
    23:00 +4°C° 0 mm 4 m/s 755 mmHg 65%
    Voir plus